CAPE
111 113 74 224 63 142 127 38 46 222 155 223 1 61 424 383 1073 816 1021 929 1136 1131 1476 669 88 1 27 24 134 341 418 64 423 1 2 42 326 414 546 668 738 845 882 1122 1514 1721 2058 2551 2840 2756 2944 2982 2937 2909 2871 2998 2997 2929 2844 2864 3073 3022 3076 2928 3085 3035 3050 3039 2923 3012 2997 2900 2851 2850 2998 3046 2619 2679 2689 2510 2504 2356 2478 2544 2564 2799 2936 2909 2861 2885 2801 2681 2440 2419 2502 2466 2446
355 323 300 233 18 94 66 158 211 195 181 31 0 230 288 838 987 984 1022 877 1202 962 855 699 91 396 634 341 190 150 102 429 407 350 182 355 364 485 736 823 910 954 894 1152 1547 1755 2119 2666 2962 2908 2965 2879 2894 2849 2972 2897 2900 2811 2976 3064 3060 3060 3090 3106 3154 3082 2962 2939 2852 2763 2883 2897 2758 2780 2714 2714 2979 2517 2467 2288 2202 2180 2466 2523 2522 2890 2654 2746 2833 2890 2736 2632 2353 2229 2300 2294 2303
422 402 267 320 76 251 435 204 225 65 60 1 0 89 472 464 850 1016 1257 1286 1255 744 831 684 255 565 516 136 287 676 152 364 142 206 365 391 432 554 841 966 1071 1037 1027 1226 1456 1828 2204 2556 2977 3022 2958 2888 2884 2877 2997 2878 2850 2870 3056 3134 3144 3196 3074 3163 3000 2852 2918 2899 2752 2757 2791 2844 2924 2724 2874 2827 2458 2297 2459 2340 2182 2412 2390 2302 2294 2564 2732 2856 2779 2764 2635 2447 2122 2210 2389 2288 2333
404 374 383 327 84 254 434 384 196 76 22 0 0 79 467 798 546 1161 1495 795 670 733 776 514 375 564 422 301 328 506 239 196 175 200 271 511 408 674 916 1088 1410 1252 1262 1294 1514 1865 2207 2537 3082 3094 2935 2996 2930 2844 2887 2919 3073 3176 3126 3151 2945 3032 3016 3129 3032 3001 2894 2876 2849 2810 2937 2899 2766 2757 2750 2720 2453 2698 2697 2521 2176 2266 2344 2389 2542 2412 2684 3019 2754 2692 2504 2092 2046 2068 2179 2126 2248
416 350 343 280 454 434 310 490 451 372 177 0 47 303 1097 1020 664 706 760 702 820 699 684 374 198 500 619 424 304 517 54 232 208 240 264 478 637 824 956 1236 1366 1454 1476 1559 1738 1964 2130 2758 3067 2942 2998 3010 2905 2903 3036 2939 2948 2927 2997 2929 2854 2880 2924 2990 3000 2956 2827 2676 2866 2930 2769 2778 2830 2777 2625 2320 2313 2579 2311 2736 2734 2618 2513 2278 2378 2590 2653 2906 2781 2678 2496 2324 2198 2174 2072 1978 1987
456 416 465 447 608 904 576 422 301 224 4 266 76 218 1307 1079 1182 577 721 649 808 602 557 293 367 461 515 504 86 84 72 150 212 238 310 588 766 873 1106 1388 1470 1663 1697 1720 1865 2028 2194 2834 2855 2972 2998 2958 2890 2989 2898 2739 3022 2983 2968 2835 2840 2897 2854 2712 2865 2986 2857 2894 2628 2834 2646 2646 2442 2293 2254 2185 2294 2472 2388 2430 2344 2596 2429 2322 2484 2676 2872 2978 2702 2556 2454 2470 2404 2100 1962 2123 2196
524 520 481 337 565 624 696 396 181 75 559 287 321 572 1187 1382 883 956 562 470 584 654 451 333 140 302 643 460 109 48 108 276 222 227 441 684 826 998 1186 1342 1540 1677 1666 1784 1934 2028 2449 2722 2976 3011 3010 2802 2888 3024 2875 2874 2990 2936 2855 2914 2833 2734 2773 2971 3000 2794 2786 2677 2606 2736 2656 2481 2815 2646 2295 2322 2436 2582 2653 2248 2420 2341 2664 2624 2544 2554 2737 2785 2606 2492 2439 2035 2400 2033 2141 2266 2460
546 690 562 735 768 572 430 384 200 316 547 490 632 1321 1505 937 852 908 545 411 426 457 176 452 291 493 492 462 556 192 256 228 195 444 655 761 900 1072 1174 1373 1499 1564 1673 1806 1918 2088 2510 2731 2988 3015 2828 2734 2793 3034 3037 2936 2929 2734 2642 2747 2725 2904 2504 2680 2849 2805 2663 2709 2629 2557 2616 2692 2672 2391 2394 2426 2732 2628 2511 2424 2481 2428 2579 2552 2685 2697 2751 2819 2637 2490 2584 2421 2036 2050 2208 2386 2147
639 758 909 680 602 318 276 216 141 177 237 488 498 1839 1685 1102 996 871 905 599 484 228 139 207 510 495 378 463 612 484 362 384 505 736 679 829 959 1069 1206 1334 1418 1477 1595 1806 1942 2126 2558 2768 3019 2920 2807 2816 3008 3052 3102 2970 2898 2812 2690 2634 2708 2574 2694 2574 2664 2685 2740 2789 2570 2514 2630 2612 2473 2754 2612 2651 2322 2376 2372 2488 2374 2393 2390 2509 2638 2599 2589 2594 2578 2450 2582 2604 2450 2217 2112 2116 2077
853 706 733 680 455 287 111 27 11 441 503 1003 581 1715 1339 1268 914 587 661 416 417 511 360 459 540 578 394 492 512 616 476 557 580 595 742 888 1002 1090 1159 1292 1412 1454 1573 1807 1976 2300 2642 2805 3022 2898 2823 2792 2992 3075 3057 2795 2787 2588 2627 2520 2632 2730 2696 2840 2754 2855 2808 2645 2649 2368 2588 2492 2724 2642 2831 2878 2598 2410 2427 2441 2399 2486 2332 2328 2358 2426 2463 2102 2579 2456 2445 2568 2433 2222 2167 1959 2175
902 782 972 701 425 123 3 0 0 17 426 611 916 1478 1214 1096 614 620 468 501 520 480 366 448 468 315 252 379 485 516 372 500 503 620 760 938 996 1047 1129 1228 1364 1442 1569 1780 2056 2354 2725 2692 2982 2930 2812 2776 3058 2942 3114 3086 2884 2859 2830 2945 2838 2791 2702 2608 2605 2666 2688 2815 2836 2744 2689 2567 2693 2842 2682 2674 2512 2398 2278 2483 2352 2549 2392 2425 2403 2342 2367 2472 2491 2606 2516 2455 2262 2032 2250 2090 2012
950 800 813 542 354 167 176 9 52 18 458 570 1226 1499 860 1032 791 672 532 497 505 482 467 454 443 266 312 370 414 539 415 438 502 627 796 876 929 998 1068 1177 1298 1408 1584 1833 2170 2381 2610 2625 2900 2921 2949 2909 3018 2997 3137 3121 2867 2883 2972 2912 2762 2590 2652 2620 2624 2534 2636 3070 3068 2981 2878 2378 2405 2566 2309 2358 2355 2442 2464 2432 2386 2308 2581 2616 2430 2630 2493 2324 2531 2675 2509 2509 2366 2109 2085 2210 2285
967 808 676 306 327 26 282 160 10 13 30 296 944 1140 978 858 734 882 539 464 451 475 431 333 240 272 262 374 614 418 395 414 514 650 727 774 873 954 1031 1118 1254 1424 1644 1996 2254 2415 2533 2530 2804 2813 2870 2938 3058 3036 2853 2977 2992 2950 2883 2801 2629 2621 2546 2618 2680 2590 2717 2912 3046 2987 2849 2706 2512 2571 2667 2759 2826 2796 2784 2531 2371 2624 2766 2659 2661 2656 2433 2468 2480 2713 2587 2505 2409 2264 2592 2312 2450
1045 876 662 540 209 468 488 465 16 556 0 162 738 838 906 756 763 1143 521 422 392 472 287 287 323 446 469 448 493 432 386 411 512 584 618 715 841 942 1033 1139 1315 1522 1809 2098 2296 2469 2447 2384 2692 2659 2717 2795 2896 2966 2985 2993 2920 2938 2846 2680 2642 2579 2626 2632 2694 2768 2852 2751 2701 2576 2572 2563 2754 2806 2824 2824 2895 2938 2780 2300 2510 2485 2773 2522 2527 2499 2437 2486 2707 2726 2672 2624 2621 2729 2317 2324 2404
1097 802 678 557 500 429 510 474 17 5 16 422 836 810 748 889 1297 1226 511 439 482 600 396 372 338 307 274 400 320 348 368 418 474 484 601 734 885 1015 1100 1216 1388 1648 1929 2131 2302 2444 2383 2240 2541 2654 2580 2763 2724 2622 2863 2995 2866 2844 2750 2623 2532 2566 2724 2744 2571 2678 2822 2513 2503 2430 2379 2661 2750 2883 2785 2630 2864 2905 2768 2626 2628 2644 2476 2581 2442 2223 2356 2508 2326 2621 2655 2788 2845 2818 2838 2474 2551
1147 1005 811 672 496 199 38 158 18 10 28 478 871 637 637 842 778 796 863 914 536 537 617 364 288 510 224 392 326 346 361 384 398 495 666 880 1041 1146 1203 1288 1508 1768 1962 2136 2273 2382 2322 2261 2363 2606 2534 2680 2613 2528 2771 2672 2860 2684 2638 2586 2443 2602 2663 2562 2584 2713 2834 2786 2454 2687 2700 2795 2433 2520 2761 2804 2606 2474 2457 2508 2422 2552 2231 2375 2397 2284 1996 2250 2200 2883 2882 2968 2923 2693 2460 2584 2616
1096 1061 839 738 421 259 114 67 0 10 79 814 786 523 651 650 803 786 541 556 571 468 483 439 332 446 336 444 380 357 333 355 424 587 810 1001 1155 1261 1316 1397 1616 1808 1962 2120 2239 2226 2301 2275 2302 2489 2486 2586 2482 2471 2633 2573 2947 2695 2610 2515 2496 2494 2383 2456 2588 2742 2773 2733 2853 2784 3371 2781 2643 2763 2837 2631 2571 3042 2652 2410 2344 2588 2494 2106 2064 2228 2103 2342 2805 2886 2882 2791 2652 2555 2617 2396 2464
1458 796 602 610 454 222 90 69 3 6 184 745 771 510 576 663 545 548 529 628 582 491 685 470 547 484 487 442 384 305 274 309 488 698 858 1051 1138 1263 1345 1457 1610 1674 1880 2044 2195 2157 2263 2254 2237 2328 2382 2458 2408 2493 2551 2522 2830 2781 2316 2310 2460 2550 2420 2228 2764 2876 2874 2573 2936 3025 3172 3422 2567 2494 3042 2998 2724 2157 2555 2339 2445 2308 2318 2461 2780 2797 2768 2829 2808 2779 2798 2874 2642 2572 3098 2524 2830
1114 952 701 378 356 328 176 5 12 15 14 581 664 530 552 615 546 576 582 588 588 535 610 474 572 580 528 447 338 272 237 285 540 728 898 1002 1053 1098 1170 1371 1464 1672 1826 2012 2152 2105 2220 2199 2174 2180 2278 2346 2360 2488 2533 2532 2606 2430 2407 2369 2583 2494 2902 3200 2630 2981 2489 2422 2399 2832 2924 2640 2654 2786 2944 3288 3261 2446 2372 2571 2491 2524 2610 2793 2831 2781 2784 2668 2696 2727 2682 2404 2535 3025 2426 2209 2308
889 912 882 672 495 397 154 10 10 6 108 467 564 557 488 557 573 657 619 570 606 547 622 526 610 628 580 440 338 264 228 289 536 752 881 951 1004 1053 1116 1270 1400 1584 1686 1889 2086 2055 2188 2104 2115 2038 2098 2261 2286 2486 2512 2535 2597 2512 2508 2504 2464 2493 2519 2442 2598 2659 2426 2418 2406 2583 2642 2752 2537 2541 2688 2589 2822 2721 2272 2132 2575 2599 3075 2961 2917 3618 2882 2626 2498 2658 2704 2802 3684 2750 2222 2529 2304
837 966 738 641 551 566 482 8 133 10 207 320 425 466 398 426 479 610 626 616 576 519 566 565 581 671 594 460 344 257 230 295 500 745 860 926 1004 1041 1095 1198 1327 1463 1613 1785 2034 2026 2080 2086 2014 1928 1906 2150 2258 2427 2470 2506 2563 2588 2608 2582 2496 2579 2533 2424 2606 2638 2471 2439 2388 2474 2552 2642 2487 2548 2792 2842 2800 2594 2474 2721 2721 2651 2712 3371 3442 2693 2626 2906 3050 2699 2806 3248 2872 2756 2430 2424 2488
824 822 769 568 326 349 266 8 22 211 19 194 151 328 392 520 451 536 576 603 567 563 552 552 589 685 604 488 366 268 243 311 480 720 843 919 1016 1052 1078 1140 1276 1456 1642 1752 1926 2085 2053 2094 2037 1864 1783 2043 2202 2366 2384 2592 2518 2479 2616 2622 2545 2642 2560 2501 2607 2688 2502 2473 2328 2550 2720 2456 2410 2466 2761 2745 2787 2807 2679 2640 2754 2758 2765 2918 2944 2580 2643 2778 2842 2813 3006 3253 2646 2915 2734 2426 2528
597 660 673 728 698 514 392 201 16 122 196 163 144 174 227 513 456 479 466 494 519 534 577 618 587 674 613 483 363 295 278 335 465 680 797 897 995 1024 1062 1086 1222 1418 1629 1639 1849 2012 2062 2069 1987 1859 1716 1907 2092 2285 2304 2496 2449 2421 2604 2613 2525 2637 2520 2554 2540 2681 2538 2446 2334 2639 2530 2257 2151 2252 2570 2644 2675 2689 2868 2858 2800 2696 2624 2688 3016 2440 2304 2392 2450 2370 2368 2488 2588 2545 2524 2270 1978
512 584 528 625 640 660 628 549 467 413 222 102 125 82 297 448 438 455 501 474 552 545 567 612 578 677 605 509 374 320 340 380 466 635 766 862 988 1018 1032 1040 1150 1370 1502 1540 1740 1912 2198 2022 1932 1830 1692 1775 1876 2149 2217 2371 2405 2441 2528 2810 2605 2577 2545 2565 2535 2551 2551 2446 2388 2223 2779 2321 2078 2062 2440 2620 2425 2467 2723 2755 2669 2596 2538 2450 2456 2842 2390 2234 2337 2441 2435 2262 2480 2602 2565 2471 2108
396 354 249 448 431 387 328 298 178 7 11 95 90 92 95 273 125 428 517 544 591 594 597 568 592 687 606 506 392 335 404 422 465 592 706 831 974 1073 1002 979 1126 1333 1458 1475 1672 1813 2008 1979 1876 1794 1685 1699 1745 1960 2058 2243 2294 2396 2427 2603 2502 2644 2575 2548 2524 2458 2484 2446 2356 2274 2940 2438 2155 2002 2239 2593 2343 2124 2486 2593 2532 2408 2281 2286 2310 2370 2348 2203 2153 2090 2186 2117 1828 1975 2140 2192 1944
290 310 95 56 40 32 245 215 82 14 13 15 16 92 46 132 12 332 443 559 604 607 616 622 588 660 604 501 394 362 471 475 501 602 698 830 999 1075 1022 937 1062 1279 1384 1442 1624 1789 1925 1909 1835 1786 1663 1641 1663 1796 1858 2085 2136 2210 2224 2402 2404 2588 2450 2530 2508 2416 2422 2396 2243 2188 2368 2342 2317 2058 2094 2402 2458 1886 2135 2318 2358 2258 2152 2155 2229 2223 2174 2027 1968 1928 2112 2373 2097 1998 2116 2031 2407
66 308 127 0 0 0 0 0 0 0 34 6 114 78 33 0 6 9 32 438 526 689 657 669 613 628 585 496 366 371 513 506 540 603 705 830 992 1045 1017 902 988 1160 1302 1371 1511 1631 1882 1864 1820 1773 1670 1680 1598 1648 1672 1826 1930 2017 1985 2076 2153 2275 2367 2329 2394 2400 2332 2210 1994 1885 2148 2418 2280 2197 2040 2233 2420 1785 1809 2020 2150 2200 2176 2223 2148 2086 2004 2084 1824 1978 2148 2294 2216 1952 2333 2266 2668
0 0 0 0 0 0 0 0 0 0 58 2 20 51 0 0 2 6 201 289 574 700 703 657 676 650 626 445 325 363 517 542 560 630 711 815 957 1008 991 919 932 1031 1194 1294 1396 1522 1747 1764 1744 1672 1616 1591 1530 1510 1615 1593 1732 1770 1810 1886 1942 2043 2173 2160 2139 2240 2105 1883 1838 1751 1826 2006 2555 2141 2004 2154 2286 1913 1778 1952 2012 2177 2321 2294 2129 2088 2030 1866 2114 2056 2247 2204 2138 2268 2088 1921 2287
0 0 0 0 0 0 0 0 0 0 26 1 0 60 44 0 1 10 200 409 632 702 711 666 673 670 652 460 342 393 526 584 618 643 702 772 916 1010 983 922 918 963 1061 1199 1304 1462 1626 1643 1624 1523 1503 1478 1420 1392 1411 1440 1556 1654 1726 1741 1762 1834 1898 1994 2019 2021 1711 1593 1719 1800 1758 1822 2274 1996 1850 1968 2652 2082 1871 1866 1972 2166 2232 2209 2060 1949 1970 1741 2033 2267 2348 3144 2539 2140 1796 1855 2331
0 0 0 0 0 0 0 0 0 0 25 8 23 8 4 0 0 242 257 406 621 712 722 686 654 658 646 501 413 443 549 659 683 682 690 712 873 1009 975 897 906 897 952 1088 1223 1373 1503 1541 1488 1446 1422 1339 1264 1233 1260 1305 1397 1497 1549 1576 1562 1622 1704 1778 1817 1788 1450 1366 1548 1677 1764 1790 2028 1933 1782 1701 1958 2024 2040 2060 2090 2126 2123 1999 1741 1932 1964 1986 2148 2176 2358 2813 3282 2636 2062 1879 1696
0 0 0 0 0 0 0 0 0 1 14 15 10 8 0 0 0 352 306 404 614 698 724 692 651 623 624 504 494 521 589 706 751 736 700 688 800 980 988 889 874 870 909 980 1143 1296 1512 1436 1426 1356 1294 1184 1198 1057 1204 1140 1198 1316 1389 1383 1356 1392 1462 1490 1504 1387 1098 1252 1461 1640 1781 1782 1908 1870 1843 1660 1678 1820 1868 1970 2062 2101 1997 1843 1988 2046 2111 2110 2152 2037 2759 2353 2247 2161 2132 2016 1940
0 0 0 0 0 0 0 0 0 0 17 16 36 12 9 3 0 445 410 450 586 648 716 680 650 600 591 558 560 586 627 705 786 794 759 717 765 923 966 921 856 830 846 909 1040 1188 1346 1360 1352 1275 1196 1049 951 885 952 956 975 1094 1200 1204 1106 1126 1166 1196 1204 1092 894 1078 1480 1538 1734 1838 1906 1840 1866 1742 1500 1624 1610 1565 1640 1730 1700 2020 2285 2282 2348 2250 2066 1905 2446 2208 2008 1645 2448 1527 1236
0 0 0 0 0 0 0 0 0 0 24 0 47 222 39 180 8 481 460 490 536 600 674 672 629 599 607 592 599 630 644 682 756 815 812 782 801 890 952 953 891 833 797 826 958 1093 1223 1258 1268 1198 1099 947 794 731 711 715 716 789 926 929 830 824 897 917 924 937 884 932 1205 1478 1624 1906 2105 1830 1831 1667 1403 1471 1456 1424 1379 1411 1683 2072 2369 2280 2229 2151 2138 2079 1821 2434 1897 1774 1928 1576 987
0 0 0 0 0 0 0 0 0 0 10 15 8 59 207 216 178 514 477 471 378 538 620 650 619 576 576 578 607 648 667 696 739 784 823 825 842 895 942 994 958 930 813 774 879 1014 1117 1152 1171 1106 1006 876 734 632 514 309 216 291 454 666 833 508 652 737 765 838 871 1054 1226 1356 1526 1880 2239 1897 1776 1655 1564 1504 1442 1425 1345 1362 1868 2145 2203 2247 2131 2095 2169 1726 1728 2319 2062 1634 1688 1394 912
0 0 0 0 0 0 0 0 0 0 0 14 1 18 166 177 301 498 464 448 376 386 542 609 624 595 571 550 570 616 646 680 720 758 784 834 852 906 963 991 986 976 908 768 799 931 1012 1050 1078 1034 901 824 732 670 565 244 82 85 180 304 468 441 380 544 710 787 851 977 1145 1255 1504 1854 2331 1999 1888 1714 1688 1638 1712 1482 1461 1637 2101 2100 2036 2197 2175 2232 2055 1628 2087 2005 2463 1749 1867 1557 1152
0 0 0 0 0 0 0 0 0 0 1 2 5 22 56 135 197 522 463 450 251 271 407 498 563 582 579 564 556 594 639 665 700 736 764 799 832 869 925 968 992 976 893 766 771 847 936 974 985 971 852 775 736 730 664 320 82 102 136 260 372 526 457 590 652 784 789 934 1325 1304 1607 1850 2079 2036 1932 1820 1639 1662 1703 1654 1706 1862 2215 2076 2020 2121 2124 2411 2251 1826 1905 2106 2179 3042 2113 1784 954
0 0 0 0 0 0 0 0 1 8 15 0 14 27 45 27 205 528 520 473 272 374 394 421 461 532 568 556 554 590 642 682 693 742 775 796 818 840 887 948 994 996 939 794 681 784 868 920 917 910 846 748 722 725 724 476 206 64 42 156 308 406 551 555 710 725 848 1074 1342 1486 1648 1910 1930 1929 1895 1669 1489 1932 1810 1743 1871 1978 2198 2204 2094 2051 2016 2377 2238 2262 1930 2939 2037 2046 1886 1709 882
0 0 0 0 0 0 0 0 5 14 24 0 0 16 23 10 103 470 544 494 473 424 408 394 405 438 500 520 515 540 590 593 620 688 748 781 799 806 839 891 931 958 949 850 689 751 807 859 876 866 831 766 750 725 732 672 402 202 90 58 95 154 482 740 686 695 884 1152 1426 1523 1677 1874 1898 1893 2128 1667 1548 1602 1772 1733 1881 2007 2136 2312 2164 2021 1890 2625 2964 2424 2281 2278 2175 1991 1716 1700 937
0 0 0 0 0 0 0 0 0 4 10 0 0 1 7 1 10 336 548 524 493 438 408 402 398 400 427 460 472 478 493 530 556 612 682 739 758 772 801 837 878 914 934 901 770 725 749 810 840 822 814 788 770 744 708 711 556 426 158 70 46 57 356 686 709 700 1085 1257 1428 1548 1654 1770 1853 1853 2114 1871 1572 1540 1685 1638 1774 1887 2095 2371 2421 2149 2399 2512 2535 2484 2346 2227 2032 2011 2102 1982 1466
0 0 0 0 0 0 0 0 0 0 6 0 0 0 3 2 0 158 474 541 518 462 428 416 393 389 393 435 447 427 460 513 530 560 628 686 730 750 764 800 840 868 924 904 808 737 730 834 792 802 803 795 791 778 915 713 677 566 324 191 173 253 550 728 759 730 1004 1303 1462 1538 1602 1666 1752 1814 2043 2028 1761 1615 1642 1646 1679 1723 2048 2218 2322 2206 2276 2378 2466 2590 2366 2158 1976 2095 1912 1923 1943
0 0 0 0 0 0 0 0 0 0 0 0 0 0 0 0 0 0 212 506 503 487 458 364 300 380 324 291 412 363 362 449 495 515 558 619 680 722 762 804 822 847 889 916 896 821 768 763 772 796 800 807 800 922 927 740 805 706 676 593 584 668 840 790 708 785 809 1284 1459 1523 1620 1638 1654 1718 1842 2146 2063 1708 1668 1656 1688 1796 1942 2034 2188 2103 2193 2268 2428 2509 2277 2116 2015 1896 1866 1852 1728
0 0 0 0 0 0 0 0 0 0 0 0 0 0 0 0 0 0 0 276 496 519 504 473 441 406 404 397 404 372 288 322 299 480 533 576 628 693 738 811 869 876 869 896 921 917 879 824 799 797 798 800 795 801 822 774 736 722 690 646 598 668 766 840 840 826 806 946 1414 1459 1608 1734 1666 1663 1668 1977 2153 1913 1817 1795 1850 1918 1826 2030 2154 2080 2093 2170 2301 2321 2172 2123 2017 1970 1886 1903 1694
0 0 0 0 0 0 0 0 0 0 0 0 0 0 0 0 0 0 0 116 360 354 499 525 494 466 418 426 416 372 322 272 196 289 481 528 583 654 710 803 896 938 934 926 929 934 908 866 823 812 817 801 802 790 821 960 755 727 700 684 665 637 679 798 876 873 837 837 1022 1284 1554 1767 1794 1764 1674 1651 1969 2058 2007 2022 2038 1995 1858 1872 2335 2036 2017 2098 2126 2170 2096 2029 2062 2087 1985 1944 1691
0 0 0 0 0 0 0 0 0 0 0 0 0 0 0 0 0 0 0 10 168 232 405 476 508 483 481 436 421 377 332 281 175 234 441 500 552 608 704 778 882 960 995 1003 1000 972 954 916 856 827 820 951 816 790 788 907 761 737 720 698 706 685 616 724 843 915 867 869 894 1036 1355 1696 1858 1842 1798 1664 1757 1994 1983 1992 2018 2000 1902 1810 2272 2138 2026 2110 2170 2075 2208 2026 2165 2252 2181 2094 1916
0 0 0 0 0 0 0 0 0 0 0 0 0 0 0 0 0 0 0 0 3 174 266 416 440 480 478 474 435 407 351 301 225 188 250 452 502 561 670 764 848 932 993 1038 1068 1066 1036 995 924 860 848 962 859 820 795 817 888 748 740 729 748 736 668 676 830 900 934 1044 972 978 1167 1472 1789 1871 1855 1806 1755 1828 2171 1886 1882 1921 1899 1854 2527 2376 2098 2118 2289 2310 2312 2232 2306 2371 2380 2370 2196
0 0 0 0 0 0 0 0 0 0 0 0 0 0 0 0 0 0 0 0 0 50 209 355 396 418 441 444 450 411 336 190 184 172 188 288 452 501 580 743 814 899 980 1034 1093 1114 1104 1070 1022 944 891 910 902 867 891 822 822 922 746 746 748 784 793 725 734 858 919 959 981 1026 1121 1339 1632 1825 1866 1871 1841 1788 1964 1993 1806 1798 1835 1880 2490 2517 2358 2261 2323 2407 2386 2406 2412 2442 2478 2532 2452
0 0 0 0 0 0 0 0 0 0 0 0 0 0 0 0 0 0 0 0 0 0 21 105 260 358 390 411 400 259 207 214 211 195 182 201 359 432 310 562 757 852 931 1006 1070 1118 1149 1132 1118 1053 985 942 965 924 875 848 840 820 763 751 770 802 816 743 752 820 898 954 1006 1060 1130 1308 1510 1726 1830 1860 1866 1840 1841 2024 1862 1730 1721 2139 2493 2524 2593 2485 2418 2496 2556 2578 2558 2520 2532 2562 2579
0 0 0 0 0 0 0 0 0 0 0 0 0 0 0 0 0 0 0 0 0 0 0 5 52 112 354 384 376 370 312 373 344 234 204 174 166 165 260 464 574 770 861 954 1027 1092 1147 1163 1164 1155 1096 1015 1017 989 937 879 850 845 786 736 759 796 857 872 780 812 879 948 1012 1076 1132 1222 1437 1637 1730 1825 1857 1863 1851 1930 2036 1830 1820 1853 2104 2328 2564 2594 2578 2622 2664 2643 2616 2593 2581 2578 2634
0 0 0 0 0 0 0 0 0 0 0 0 0 0 0 0 0 0 0 0 0 0 0 1 20 48 222 358 382 378 373 382 350 257 243 192 185 274 342 402 446 623 804 893 973 1044 1112 1159 1170 1183 1163 1102 1084 1058 1012 956 893 862 830 760 730 752 811 854 863 842 873 930 997 1062 1118 1178 1316 1545 1654 1787 1822 1838 1860 1841 1912 1908 1839 1869 1905 2085 2338 2502 2599 2550 2521 2522 2525 2567 2572 2618 2684
0 0 0 0 0 0 0 0 0 0 0 0 0 0 0 0 0 0 0 0 0 0 0 0 4 23 42 92 336 386 391 390 409 372 280 340 228 336 336 356 385 440 673 828 921 986 1054 1113 1156 1152 1164 1152 1159 1132 1083 1033 974 919 880 820 737 795 757 797 860 883 894 918 952 996 1046 1078 1215 1455 1641 1724 1804 1827 1912 1864 1918 1939 1912 1900 1973 2008 2202 2376 2554 2604 2563 2540 2514 2576 2628 2710 2756
0 0 0 0 0 0 0 0 0 0 0 0 0 0 0 0 0 0 0 0 0 0 0 0 1 9 17 28 74 310 386 423 431 445 434 412 349 376 374 366 364 396 517 721 847 933 987 1054 1107 1118 1120 1136 1175 1189 1158 1107 1065 1010 959 912 826 764 765 776 838 874 895 906 938 956 994 1015 1082 1283 1494 1661 1706 1806 1908 1839 1858 1914 1970 1979 2095 2146 2242 2321 2496 2610 2676 2584 2590 2570 2644 2723 2745
0 0 0 0 0 0 0 0 0 0 0 0 0 0 0 0 0 0 0 0 0 0 0 0 0 5 10 8 10 38 210 402 443 466 488 474 444 406 412 403 388 382 390 588 752 862 926 985 1035 1074 1084 1098 1134 1191 1200 1182 1140 1086 1026 984 941 888 950 817 828 867 896 904 921 930 958 975 998 1074 1274 1471 1582 1748 1813 1814 1916 1946 1956 2021 2113 2191 2250 2302 2315 2474 2548 2577 2591 2573 2629 2684 2684
0 0 0 0 0 0 0 0 0 0 0 0 0 0 0 0 0 0 0 0 0 0 0 0 2 4 5 12 15 24 72 262 376 440 498 514 505 500 482 472 458 430 408 443 637 775 860 918 968 1010 1040 1052 1086 1141 1188 1191 1201 1158 1110 1050 1002 961 924 884 866 886 921 942 938 938 930 942 937 930 1022 1282 1464 1594 1710 1810 1841 1904 1896 2010 2138 2257 2276 2311 2290 2375 2452 2459 2520 2546 2608 2675 2660
0 0 0 0 0 0 0 0 0 0 0 0 0 0 0 0 0 0 0 0 0 0 0 0 0 0 2 17 26 76 52 121 284 370 409 414 530 547 541 543 528 502 483 456 538 691 798 846 893 946 992 1015 1030 1068 1122 1153 1167 1182 1177 1135 1076 1014 984 969 941 936 937 940 946 923 918 912 896 847 812 1196 1288 1445 1588 2037 1786 1815 1879 1960 2155 2286 2369 2388 2344 2347 2393 2432 2467 2468 2554 2650 2711
0 0 0 0 0 0 0 0 0 0 0 0 0 0 0 0 0 0 0 0 0 0 0 0 0 0 0 15 25 32 90 59 180 290 286 336 500 533 549 561 572 564 538 518 497 626 746 807 846 890 934 960 982 1001 1056 1090 1104 1134 1157 1154 1122 1075 1028 1012 1006 974 964 948 951 946 934 906 874 818 829 1076 1205 1278 1409 1647 1756 1744 1782 1922 2059 2228 2393 2452 2412 2427 2360 2384 2363 2414 2509 2626 2720
0 0 0 0 0 0 0 0 0 0 0 0 0 0 0 0 0 0 0 0 0 0 0 0 0 0 0 1 9 12 22 101 143 231 282 305 477 527 562 581 586 602 598 572 546 553 690 767 817 848 871 902 932 966 1106 1075 1080 1088 1100 1104 1105 1088 1068 1049 1040 1019 983 972 972 964 944 909 879 820 730 896 1105 1217 1291 1411 1605 1670 1714 1786 1951 2098 2265 2424 2445 2442 2458 2383 2354 2399 2479 2570 2632
0 0 0 0 0 0 0 0 0 0 0 0 0 0 0 0 0 0 0 0 0 0 0 0 0 0 0 0 2 8 10 26 54 125 210 280 439 507 548 574 603 608 599 601 596 564 602 726 787 827 856 898 928 956 1003 1054 1062 1071 1094 1112 1110 1105 1110 1074 1049 1026 1014 1014 1004 980 959 912 872 834 789 884 1033 1141 1232 1317 1462 1608 1638 1680 1805 1975 2122 2315 2412 2449 2445 2436 2399 2328 2397 2467 2507
0 0 0 0 0 0 0 0 0 0 0 0 0 0 0 0 0 0 0 0 0 0 0 0 0 0 0 0 1 4 9 12 32 68 163 281 403 473 534 565 589 606 624 628 626 585 593 692 758 814 848 896 935 972 1018 1069 1073 1081 1105 1110 1113 1125 1116 1102 1073 1067 1057 1038 1027 994 971 937 889 856 917 997 1055 1130 1206 1258 1360 1506 1624 1661 1745 1865 2015 2174 2315 2356 2397 2296 2345 2292 2314 2330 2352
Wind_Speed
3 2 nan 1 nan 1 4 nan nan 4 7 9 nan nan 12 12 11 10 9 9 7 10 8 4 nan nan nan nan 4 6 11 nan 5 nan nan nan 2 9 5 6 7 8 8 4 4 6 6 7 9 10 10 10 10 11 11 10 10 10 10 10 8 7 7 6 5 4 4 3 2 2 2 2 0 2 2 2 1 2 3 3 2 3 3 4 4 5 5 4 4 4 4 5 4 2 1 1 1
2 1 2 2 nan nan nan 5 8 6 9 nan nan 11 13 12 10 11 8 9 10 7 7 4 nan 5 10 6 2 4 11 11 6 3 6 3 2 5 8 8 8 9 7 5 4 5 4 5 8 10 9 10 10 10 10 10 10 10 9 8 7 6 5 5 4 4 3 2 2 2 1 1 1 2 2 2 2 2 3 2 2 4 5 5 5 4 4 3 3 3 3 5 2 2 2 1 1
1 4 4 4 nan 9 8 7 9 nan nan nan nan nan 12 12 11 10 7 6 7 3 5 3 3 8 6 4 6 8 5 6 3 2 3 3 6 4 9 9 7 8 8 4 4 4 3 5 8 9 10 10 10 10 9 8 8 8 7 6 6 5 5 4 4 3 2 2 1 1 1 1 2 2 2 2 2 3 3 3 4 4 4 4 3 4 3 2 3 3 4 4 2 2 1 2 5
1 5 8 8 nan 9 11 8 9 nan nan nan nan nan 13 12 11 8 7 5 3 3 3 2 3 12 4 6 3 6 4 1 3 6 5 6 3 5 6 8 7 6 6 4 4 4 3 7 7 8 9 10 10 9 8 7 6 5 5 5 4 4 4 3 3 3 2 1 0 0 0 1 1 2 2 3 4 5 5 5 5 5 4 3 3 2 2 2 2 2 7 4 0 2 3 1 2
0 5 7 10 8 10 10 10 9 9 10 nan nan 15 14 13 11 6 5 7 6 2 2 4 9 12 8 3 4 4 nan 3 4 2 4 2 3 6 6 5 6 6 6 5 4 3 4 10 7 8 8 9 9 9 8 7 6 5 4 3 3 3 2 2 2 2 1 0 0 0 1 0 1 1 2 4 7 7 7 6 6 5 3 2 2 3 2 2 3 4 7 5 3 2 2 1 2
3 5 9 10 10 11 11 10 10 11 nan 11 nan 14 14 12 10 6 4 5 8 6 5 6 4 3 7 8 nan nan nan 4 7 3 6 4 9 8 7 4 5 6 5 5 4 4 4 10 9 8 8 8 8 8 7 7 5 4 3 3 3 3 2 2 2 1 1 1 0 1 1 1 2 2 3 4 5 7 7 5 4 3 3 3 2 2 3 2 3 4 5 4 3 3 2 1 2
3 5 10 11 11 10 11 12 13 nan 16 10 12 12 11 11 11 6 3 5 10 9 9 5 5 5 5 5 6 nan 6 4 8 10 3 10 9 7 7 3 4 6 5 5 5 4 5 10 9 9 8 8 8 8 7 6 5 4 3 3 3 3 2 2 1 1 1 0 1 1 2 3 3 4 4 5 5 5 5 4 3 2 2 2 2 2 3 2 2 3 3 3 3 2 3 2 1
8 10 7 9 10 8 11 13 14 8 12 8 10 8 8 7 8 5 4 3 3 6 7 1 3 4 4 6 3 6 3 1 7 14 12 12 11 6 6 4 5 8 6 4 4 4 8 11 10 9 9 9 9 8 6 6 5 4 4 4 3 2 3 2 1 1 1 1 2 2 3 3 3 3 4 4 4 5 4 3 1 2 2 2 3 3 4 2 1 2 3 2 1 1 1 2 3
7 10 9 8 9 8 13 14 12 9 12 9 9 8 5 6 6 5 6 7 5 6 3 3 5 3 1 6 4 4 4 7 9 16 16 13 13 7 3 5 6 7 5 5 5 4 4 10 10 11 10 10 9 8 7 6 6 6 5 4 3 3 2 1 1 1 1 2 3 3 3 3 4 3 3 3 2 2 2 4 3 2 2 2 4 4 4 3 2 1 2 2 3 1 0 1 1
6 9 8 8 9 11 13 nan nan 8 9 9 6 4 5 6 5 7 5 3 3 5 7 8 9 4 3 6 2 4 3 9 12 14 15 14 13 7 5 6 6 8 6 5 4 4 3 9 11 11 11 10 10 9 8 7 6 5 5 6 5 4 3 2 2 2 3 3 4 4 4 3 3 3 4 4 3 2 2 2 4 4 3 4 3 4 5 3 2 1 2 3 3 6 3 1 2
7 7 9 8 8 11 nan nan nan nan 9 10 7 5 5 6 6 6 7 5 4 5 7 8 10 4 2 3 6 4 6 12 15 17 16 14 13 10 5 4 5 7 8 7 5 3 4 4 11 11 10 11 9 9 8 7 7 7 5 5 5 5 4 4 4 4 4 4 5 5 6 4 3 4 4 4 4 4 4 3 3 4 3 3 4 4 4 5 2 2 2 3 3 3 0 1 4
8 7 8 8 8 7 10 nan nan nan 9 7 6 5 4 5 6 5 6 5 4 5 3 3 1 4 6 3 3 1 6 11 13 15 15 13 12 10 5 3 4 5 7 7 5 2 3 3 4 8 10 10 9 8 7 7 7 6 6 6 5 5 4 5 6 7 6 5 6 6 7 6 4 4 3 3 4 5 5 4 4 4 4 4 4 5 5 4 2 2 3 3 2 1 1 2 3
9 9 7 8 8 nan 10 13 nan nan nan 9 3 5 5 5 3 4 6 5 3 4 2 2 11 1 3 3 4 2 6 9 11 15 17 13 12 8 5 4 4 5 5 5 5 3 3 3 2 3 6 10 8 7 7 6 7 6 6 6 6 5 6 7 8 8 6 7 8 7 6 6 5 4 4 4 5 5 6 6 4 3 3 4 4 5 5 5 4 3 4 3 2 1 1 1 1
9 9 7 9 8 9 12 13 nan 8 nan 8 6 4 3 4 5 4 5 4 3 2 3 11 7 7 7 6 5 3 3 8 11 14 14 15 12 8 7 5 5 4 5 5 5 4 2 2 2 3 4 3 3 5 6 6 6 6 6 7 7 7 8 9 9 9 8 8 7 6 6 5 5 5 5 5 5 6 6 7 5 3 3 4 5 4 4 6 6 5 6 6 4 3 2 2 2
9 10 10 9 9 10 13 11 nan nan nan 6 4 2 2 7 5 6 3 5 2 5 8 5 7 6 6 9 8 7 8 9 10 11 13 15 12 9 8 5 5 4 3 5 5 4 2 2 1 2 2 2 1 3 5 7 6 6 7 8 8 8 9 10 10 10 10 9 8 8 8 7 7 7 7 7 6 6 6 7 7 5 3 6 5 7 6 7 8 9 9 9 8 6 6 5 4
10 11 9 10 9 10 nan 10 nan nan nan 6 5 3 6 8 7 4 6 3 5 6 9 3 2 2 3 6 6 14 14 11 9 9 11 14 10 7 7 6 5 4 3 4 4 3 1 1 2 2 2 1 1 3 6 8 6 6 8 8 8 8 10 12 12 12 12 11 10 11 10 12 11 11 8 11 9 8 8 10 9 8 7 7 8 9 9 12 11 10 10 10 10 9 9 8 7
10 11 9 8 11 8 12 nan nan nan nan 10 5 1 4 6 9 9 5 8 12 7 3 4 2 4 8 1 11 15 16 11 7 9 9 10 8 5 4 4 3 2 2 3 3 2 1 1 1 2 3 1 1 4 7 8 8 7 9 9 8 9 11 12 13 13 13 13 13 12 14 16 16 16 17 16 13 15 12 12 11 10 10 9 10 11 11 11 11 10 10 10 10 10 10 9 9
12 9 10 10 9 11 nan nan nan nan 6 5 3 4 6 6 6 6 9 14 10 6 8 8 10 10 6 9 10 13 16 14 9 10 8 9 8 7 5 4 4 5 3 2 3 3 1 2 1 2 3 2 2 6 9 9 9 8 11 12 12 12 12 13 14 16 15 18 15 17 18 19 18 18 19 15 16 17 18 14 14 11 10 10 10 11 11 11 11 10 10 11 11 10 9 12 12
12 12 11 10 9 9 10 nan nan nan nan 1 4 5 4 3 5 2 8 8 9 8 9 10 11 11 11 11 12 12 16 14 10 10 11 12 11 11 9 7 6 4 4 2 3 3 3 2 1 2 2 3 3 7 10 9 9 10 11 12 13 13 15 16 17 17 20 18 18 18 19 18 18 18 18 17 16 14 17 18 14 12 11 11 11 11 12 11 11 11 11 11 11 9 12 12 12
12 13 11 11 10 12 12 nan nan nan 6 3 4 5 9 4 5 3 6 7 6 8 9 9 9 10 11 11 10 10 12 13 10 10 12 12 11 11 11 11 8 6 5 3 2 4 3 3 1 2 3 3 4 9 10 9 8 9 11 13 14 16 17 17 18 19 19 18 17 17 17 17 17 18 17 16 15 16 18 18 15 13 13 12 11 13 11 12 12 11 12 10 10 12 11 11 11
17 14 10 13 12 11 13 nan 12 nan 4 2 5 8 9 3 5 4 7 9 3 3 8 11 10 12 12 13 11 9 12 12 10 10 10 10 9 7 8 9 9 6 3 0 2 3 3 3 2 2 4 4 5 9 9 8 8 10 13 14 15 17 18 19 19 18 18 17 17 17 17 17 17 18 19 19 16 16 17 18 17 16 15 14 13 13 13 13 13 12 14 12 11 10 10 10 10
21 9 11 15 17 12 13 nan nan 10 nan 8 8 10 4 7 9 2 8 5 4 10 8 6 10 14 15 14 13 10 11 12 11 11 12 11 12 10 8 6 5 4 2 1 2 2 4 3 2 3 5 6 7 9 9 8 9 11 14 15 15 17 17 18 18 17 17 17 17 16 16 16 17 18 19 18 16 16 17 17 16 15 14 14 14 14 14 13 12 12 12 11 10 10 9 9 9
17 16 10 9 12 15 14 15 nan 11 10 8 5 7 12 5 6 3 5 7 5 6 8 9 11 12 14 13 13 12 11 11 12 12 11 10 9 8 9 8 8 6 3 2 1 2 4 4 3 3 6 7 8 10 9 10 11 13 14 14 14 16 16 16 17 17 17 16 16 16 15 15 16 18 17 17 16 16 16 16 15 14 13 13 13 12 13 12 12 11 11 11 9 9 8 9 9
17 17 18 12 12 11 15 16 17 15 9 4 9 nan 8 4 5 3 3 4 6 6 11 12 10 9 11 12 13 15 14 13 13 11 11 11 11 10 9 9 7 3 1 1 2 2 4 4 3 4 7 9 9 10 10 12 13 13 14 14 14 15 15 16 17 17 16 16 16 16 14 14 15 15 16 15 16 15 15 14 14 13 13 13 12 11 12 11 10 10 10 9 9 8 9 9 9
14 14 13 17 19 19 19 14 12 nan nan nan nan nan nan 3 5 6 6 1 5 8 13 13 13 11 9 12 12 10 9 7 8 8 6 5 6 6 5 4 5 3 2 1 2 1 4 5 3 5 8 9 11 11 12 13 13 13 13 14 14 15 16 16 16 15 15 15 15 15 14 13 13 14 15 15 14 15 14 14 13 14 13 13 11 12 11 11 10 9 9 9 8 9 10 11 9
12 9 nan nan nan nan 17 16 nan nan nan nan nan nan nan 6 nan 1 6 1 7 10 12 14 14 12 10 12 13 11 10 12 9 9 10 6 6 7 7 6 5 5 3 0 1 3 5 5 4 6 9 10 11 11 13 13 13 13 13 14 15 15 15 15 14 15 13 13 15 14 14 13 13 14 14 14 13 15 14 14 13 14 13 13 11 13 12 11 12 10 11 11 10 9 11 11 10
nan 21 21 nan nan nan nan nan nan nan nan nan 13 nan nan nan nan nan nan 2 10 10 11 13 14 12 10 9 9 10 10 11 12 8 6 6 6 6 5 5 6 5 2 1 2 3 5 5 4 6 10 11 12 12 12 12 13 13 13 14 14 15 13 13 14 14 13 13 14 13 14 14 13 13 13 13 13 12 13 14 14 12 13 13 12 14 13 13 12 13 13 13 12 10 11 11 11
nan nan nan nan nan nan nan nan nan nan nan nan nan nan nan nan nan nan 11 5 11 11 10 12 11 10 9 10 9 8 8 8 6 7 11 9 6 4 5 4 5 3 2 2 2 4 5 3 4 6 10 12 12 12 12 12 13 12 12 13 14 13 12 13 14 13 13 13 13 12 13 14 13 13 13 13 13 12 13 14 14 13 15 14 14 15 15 14 14 14 14 13 13 12 12 12 11
nan nan nan nan nan nan nan nan nan nan nan nan nan nan nan nan nan nan 9 5 8 13 12 12 11 9 9 9 7 7 8 8 7 7 10 9 6 5 7 5 4 2 3 2 2 2 4 4 4 5 9 12 13 11 11 12 12 12 12 12 13 12 13 12 13 13 13 12 12 12 13 14 14 14 14 14 14 13 14 15 15 16 16 17 16 16 16 15 14 14 14 13 14 15 14 14 14
nan nan nan nan nan nan nan nan nan nan nan nan nan nan nan nan nan 12 7 5 3 9 10 10 8 8 8 8 8 7 7 9 10 9 8 7 7 7 7 6 4 2 2 3 2 3 5 8 6 7 10 11 13 13 12 12 11 11 12 12 12 12 12 12 13 12 12 12 12 13 13 14 15 14 14 15 14 14 15 16 17 18 18 17 16 15 15 14 15 15 16 14 16 15 16 16 16
nan nan nan nan nan nan nan nan nan nan nan nan nan nan nan nan nan 10 7 6 6 5 7 8 9 9 9 8 7 9 10 11 12 10 10 8 5 4 5 4 4 2 3 3 2 3 4 7 6 7 9 11 12 13 12 12 11 11 12 12 12 12 12 12 12 11 11 11 11 13 14 14 16 16 15 15 15 14 15 17 18 19 17 16 16 15 14 14 13 15 15 15 15 14 15 15 16
nan nan nan nan nan nan nan nan nan nan nan nan nan nan nan nan nan 9 7 6 7 4 5 7 9 10 11 9 8 9 10 10 11 11 11 9 6 3 3 4 4 2 1 1 2 4 5 7 5 6 8 10 11 13 13 12 11 11 11 11 11 11 12 12 12 11 11 11 12 13 14 15 16 17 16 15 15 15 17 18 18 17 16 14 15 14 13 14 14 15 15 15 17 16 15 14 17
nan nan nan nan nan nan nan nan nan nan nan nan nan 16 nan 16 nan 10 7 7 5 4 6 7 10 12 12 9 7 8 8 10 10 12 12 9 6 2 2 1 2 1 3 2 1 3 5 6 5 5 6 9 10 11 12 13 12 11 11 11 10 10 11 12 12 11 11 12 13 14 14 15 16 16 16 15 16 16 18 18 17 15 14 13 13 13 14 13 14 16 15 15 16 15 14 14 14
nan nan nan nan nan nan nan nan nan nan nan nan nan nan 17 18 16 13 9 8 6 3 6 9 10 10 11 8 7 8 10 11 13 13 13 11 6 4 0 1 1 2 4 2 2 3 3 6 7 7 9 10 11 11 11 12 12 11 11 11 11 11 12 12 11 12 12 13 13 14 14 15 16 16 15 15 16 17 17 17 15 14 13 12 11 13 15 14 14 15 15 12 13 11 13 12 12
nan nan nan nan nan nan nan nan nan nan nan nan nan nan 10 20 17 15 9 7 6 3 5 8 11 11 10 8 8 9 10 13 14 13 13 12 9 5 1 1 0 2 5 3 3 5 6 6 8 7 9 11 11 11 11 12 nan nan 11 10 11 11 12 13 12 12 13 13 13 14 14 15 16 16 15 15 16 17 16 15 14 14 12 11 11 13 16 16 13 12 14 11 10 12 13 11 11
nan nan nan nan nan nan nan nan nan nan nan nan nan nan nan 19 17 14 12 7 4 3 2 3 8 10 11 9 7 7 11 14 11 12 13 11 8 6 2 2 1 3 5 5 3 3 4 4 6 7 9 11 12 12 11 10 nan 9 9 10 12 13 13 13 13 13 13 14 14 14 14 14 15 15 15 14 15 15 15 14 13 11 10 10 10 13 16 15 15 13 13 12 9 9 9 9 9
nan nan nan nan nan nan nan nan nan nan nan nan nan nan nan nan 14 13 11 9 8 8 2 3 5 7 9 8 7 9 11 13 11 13 15 15 12 7 4 3 2 2 4 3 2 1 2 3 4 4 7 9 11 10 10 9 9 nan nan 11 12 13 14 14 14 13 14 14 14 14 14 14 14 14 13 12 13 14 14 12 11 10 10 10 12 15 15 15 13 12 10 11 9 9 10 9 9
nan nan nan nan nan nan nan nan nan nan nan nan nan nan nan nan 15 14 16 11 4 1 3 4 4 5 6 9 8 9 9 3 7 11 14 15 12 10 6 2 3 1 3 2 1 0 2 3 4 5 7 9 9 9 10 10 11 10 nan nan nan 14 13 14 15 14 14 14 13 13 14 14 13 13 12 11 12 12 11 10 10 10 9 11 12 13 13 14 13 11 10 9 10 9 11 11 11
nan nan nan nan nan nan nan nan nan nan nan nan nan nan nan nan nan 20 15 6 3 2 3 6 5 3 4 6 7 6 4 7 11 14 15 16 17 14 8 4 1 1 2 2 2 2 2 4 6 7 6 8 10 10 11 11 11 11 9 nan nan nan 14 14 15 13 12 13 13 13 13 14 12 12 10 10 10 11 10 9 9 9 9 9 10 11 11 12 11 11 9 10 10 8 9 10 11
nan nan nan nan nan nan nan nan nan nan nan nan nan nan nan nan nan 21 14 8 9 7 4 4 4 3 6 7 6 5 6 7 12 15 16 17 17 15 11 6 3 0 2 3 2 3 3 4 6 6 6 7 10 10 11 11 10 9 9 10 11 11 12 12 13 12 11 11 13 13 13 12 11 11 9 9 10 9 8 8 7 7 8 8 8 8 8 9 9 8 7 9 7 10 9 9 10
nan nan nan nan nan nan nan nan nan nan nan nan nan nan nan nan nan nan 21 18 20 17 15 15 12 8 6 2 3 2 6 8 9 11 12 14 16 18 16 10 4 3 0 1 2 2 3 2 5 6 7 8 11 11 10 10 9 7 8 9 9 9 11 10 11 13 12 12 11 12 13 11 10 10 9 8 8 8 7 7 6 6 6 7 6 7 6 7 7 6 6 7 8 9 11 9 10
nan nan nan nan nan nan nan nan nan nan nan nan nan nan nan nan nan nan nan 25 20 19 16 11 8 9 12 9 4 2 2 4 8 12 14 14 15 14 12 11 8 5 3 1 1 1 2 2 4 7 9 10 11 10 9 8 6 5 6 7 8 10 11 10 11 11 11 11 12 10 9 9 8 9 9 8 8 6 6 5 5 5 5 5 5 6 5 5 6 6 7 7 9 9 10 10 11
nan nan nan nan nan nan nan nan nan nan nan nan nan nan nan nan nan nan nan 25 16 21 15 9 9 11 9 9 6 3 4 4 4 6 8 11 12 12 13 13 10 7 4 2 3 2 1 2 3 5 8 9 10 11 8 8 6 7 7 9 10 11 11 12 12 11 10 11 9 8 8 8 8 8 8 8 7 7 6 4 4 5 4 4 4 4 5 7 7 8 6 7 9 7 7 12 13
nan nan nan nan nan nan nan nan nan nan nan nan nan nan nan nan nan nan nan nan 19 19 14 11 12 10 5 7 8 6 4 5 4 7 9 10 12 13 15 14 9 7 2 2 2 3 0 0 1 3 8 8 9 9 8 7 6 7 8 9 11 11 10 10 9 10 10 9 8 7 6 7 6 7 8 8 7 7 5 4 3 3 3 3 2 4 6 7 7 7 7 8 6 7 9 11 13
nan nan nan nan nan nan nan nan nan nan nan nan nan nan nan nan nan nan nan nan nan 18 11 11 11 8 4 4 5 7 5 5 5 3 6 9 11 11 10 9 8 4 2 1 2 3 2 2 2 3 5 6 7 5 7 7 7 8 8 8 8 8 7 8 9 10 9 8 7 7 7 6 6 7 7 7 7 7 5 4 3 3 2 2 2 3 4 5 8 8 8 7 8 7 8 9 10
nan nan nan nan nan nan nan nan nan nan nan nan nan nan nan nan nan nan nan nan nan nan 13 15 11 7 6 4 3 4 2 2 2 2 3 4 4 4 5 5 3 3 2 3 3 5 4 3 1 1 4 6 6 4 5 6 6 8 8 7 4 5 6 8 8 7 7 7 5 6 6 6 7 8 8 7 7 6 6 4 4 4 4 2 2 3 3 5 6 8 9 10 9 8 6 7 10
nan nan nan nan nan nan nan nan nan nan nan nan nan nan nan nan nan nan nan nan nan nan nan 23 19 16 13 10 5 3 3 3 3 1 1 2 2 3 4 5 4 2 2 2 2 2 3 3 2 1 3 7 6 5 4 4 6 8 8 5 3 5 5 7 8 9 8 7 6 6 6 7 7 8 8 8 7 6 5 4 4 5 3 2 2 3 3 4 6 7 8 9 9 9 7 7 7
nan nan nan nan nan nan nan nan nan nan nan nan nan nan nan nan nan nan nan nan nan nan nan nan nan 14 11 10 9 5 2 4 4 5 3 5 7 2 5 5 5 4 1 1 1 2 3 3 3 2 2 6 8 7 5 5 6 6 7 4 4 5 4 7 6 8 8 7 7 7 7 7 8 8 8 8 8 6 6 6 6 5 5 4 5 4 3 4 4 5 6 8 9 9 7 6 6
nan nan nan nan nan nan nan nan nan nan nan nan nan nan nan nan nan nan nan nan nan nan nan nan nan nan 7 6 4 3 2 4 7 8 8 8 3 4 6 5 4 4 2 2 1 2 3 3 3 3 1 3 8 9 7 6 6 6 6 3 4 5 4 4 6 7 8 7 7 8 8 8 9 9 9 9 8 7 6 7 7 7 7 6 6 5 5 5 4 5 6 8 8 9 8 8 7
nan nan nan nan nan nan nan nan nan nan nan nan nan nan nan nan nan nan nan nan nan nan nan nan nan nan nan nan 5 1 2 5 8 11 11 7 2 2 3 2 3 2 2 2 2 2 3 4 3 2 1 2 7 9 9 8 7 7 6 4 4 4 4 4 5 6 7 7 7 7 7 7 7 7 7 9 8 7 8 9 9 9 9 9 8 9 9 8 7 8 8 9 10 9 7 8 8
nan nan nan nan nan nan nan nan nan nan nan nan nan nan nan nan nan nan nan nan nan nan nan nan nan nan nan nan nan 4 1 5 10 13 13 7 2 1 0 1 1 1 2 2 2 2 3 3 3 2 1 2 4 7 10 9 10 9 8 6 5 6 5 5 6 7 6 6 8 8 8 8 7 7 7 8 6 7 8 8 10 11 11 11 11 12 12 13 13 13 13 15 14 12 11 10 9
nan nan nan nan nan nan nan nan nan nan nan nan nan nan nan nan nan nan nan nan nan nan nan nan nan nan nan nan nan nan 10 9 12 14 13 7 5 5 6 5 4 3 2 1 2 3 2 2 2 2 2 2 5 7 9 10 11 12 9 6 5 5 6 6 7 8 8 8 9 8 7 7 7 6 6 5 5 5 6 8 9 11 11 12 13 14 14 15 16 16 17 17 18 15 16 16 14
nan nan nan nan nan nan nan nan nan nan nan nan nan nan nan nan nan nan nan nan nan nan nan nan nan nan nan nan nan nan nan 13 14 14 13 9 9 9 7 5 5 3 1 3 3 3 3 4 3 3 4 5 5 7 10 12 13 12 9 8 7 6 6 5 5 5 6 9 10 9 8 7 6 5 4 4 3 4 4 6 8 9 10 11 12 13 13 13 13 14 14 15 16 15 15 17 16
nan nan nan nan nan nan nan nan nan nan nan nan nan nan nan nan nan nan nan nan nan nan nan nan nan nan nan nan nan nan nan 13 12 11 10 10 9 7 7 6 3 0 2 2 2 3 5 5 4 3 5 4 5 7 10 13 13 12 12 10 8 7 7 6 7 7 9 11 12 10 10 8 5 5 5 4 2 1 2 4 6 7 7 7 9 9 9 9 9 10 11 11 11 11 13 13 13
nan nan nan nan nan nan nan nan nan nan nan nan nan nan nan nan nan nan nan nan nan nan nan nan nan nan nan nan nan nan nan nan 16 15 15 15 13 12 12 8 4 3 3 1 3 5 6 6 5 3 3 4 7 10 13 16 15 16 16 12 10 10 10 10 10 10 11 11 10 9 8 7 8 7 6 5 4 2 2 1 3 4 3 4 5 6 5 5 5 6 7 8 8 9 10 11 10
nan nan nan nan nan nan nan nan nan nan nan nan nan nan nan nan nan nan nan nan nan nan nan nan nan nan nan nan nan nan nan 18 17 15 15 15 12 11 10 7 5 3 3 3 5 6 5 6 6 5 7 9 11 11 13 14 15 16 16 16 14 13 12 12 11 11 11 10 10 9 9 8 7 8 6 5 4 3 3 2 3 2 2 2 1 2 1 2 2 4 5 6 7 9 9 10 9
nan nan nan nan nan nan nan nan nan nan nan nan nan nan nan nan nan nan nan nan nan nan nan nan nan nan nan nan nan nan nan nan nan 15 15 13 12 13 11 8 7 9 11 11 8 4 4 7 6 5 5 7 8 10 12 14 16 15 15 14 13 14 13 14 13 12 11 11 12 12 11 10 12 8 7 5 4 3 2 1 1 1 1 1 1 1 2 3 3 4 5 6 8 10 10 8 8
nan nan nan nan nan nan nan nan nan nan nan nan nan nan nan nan nan nan nan nan nan nan nan nan nan nan nan nan nan nan nan nan nan nan 13 13 13 14 12 13 17 17 14 9 7 6 5 4 5 6 6 7 7 10 11 13 15 15 13 14 14 15 15 15 13 13 12 13 13 13 12 13 9 8 8 6 4 5 4 2 3 2 2 2 3 3 5 6 5 5 5 7 8 10 9 8 9
Wind_Direction
18 71 nan 360 nan 10 16 nan nan 99 109 109 nan nan 132 137 133 131 134 117 120 116 127 144 nan nan nan nan 172 193 151 nan 120 nan nan nan 37 334 350 341 342 337 344 11 46 67 64 352 344 335 326 324 325 327 328 328 333 333 328 321 322 326 328 326 314 312 315 324 336 356 12 9 323 221 223 218 234 249 223 197 198 194 191 196 209 216 215 212 205 208 221 249 258 252 207 193 110
62 55 25 7 nan nan nan 72 106 124 120 nan nan 129 127 130 130 124 119 119 121 115 115 138 nan 186 178 250 256 213 180 172 136 152 160 132 338 332 335 341 347 337 345 5 32 74 77 3 343 336 329 328 330 330 330 333 333 328 323 324 325 325 318 302 291 291 295 305 335 5 11 336 266 235 225 225 223 232 236 209 205 189 198 201 204 213 214 213 212 207 224 249 263 260 255 136 142
3 34 40 72 nan 88 95 112 116 nan nan nan nan nan 129 130 124 128 109 130 140 156 144 179 233 169 169 175 161 159 133 167 224 180 188 350 311 27 341 342 350 337 336 360 29 67 73 13 347 339 333 331 332 332 334 332 330 327 327 333 331 322 309 287 281 281 280 294 326 339 323 267 247 240 226 220 232 230 246 206 202 195 195 197 207 218 218 203 220 211 235 268 278 280 232 163 179
305 73 47 51 nan 98 94 108 123 nan nan nan nan nan 125 124 127 130 143 145 149 179 191 279 168 146 157 156 162 199 198 74 80 332 321 14 80 347 341 340 344 337 334 358 25 48 69 358 350 343 336 332 334 334 333 331 329 334 339 338 324 309 300 288 282 281 277 298 300 345 349 254 250 243 232 233 236 225 213 212 203 203 184 175 181 223 224 208 233 232 248 219 297 327 324 276 100
277 90 84 80 103 93 104 115 120 109 106 nan nan 123 124 132 131 137 146 149 140 169 186 185 175 157 159 192 128 121 nan 234 327 59 311 291 305 329 332 339 336 340 340 356 15 24 50 346 350 340 336 335 334 334 334 337 342 350 347 334 315 306 308 303 293 288 297 298 350 97 82 117 189 194 216 228 224 214 210 203 206 190 163 146 179 201 185 221 240 253 271 333 326 22 338 348 25
178 130 105 109 101 116 110 110 100 95 nan 120 nan 122 127 132 140 144 159 157 156 159 166 176 162 121 159 151 nan nan nan 346 353 356 332 319 335 327 326 350 339 342 340 351 13 23 40 348 344 339 339 336 335 336 338 344 354 357 348 332 320 326 329 320 311 310 307 359 19 79 112 134 156 170 199 215 231 223 207 198 203 184 164 155 187 156 172 199 238 253 279 292 321 348 310 59 68
80 125 109 110 112 118 122 115 109 nan 109 104 116 124 124 135 132 148 165 185 158 176 155 161 256 241 207 132 168 nan 90 322 335 337 337 319 323 323 324 353 348 340 339 353 13 16 30 348 344 341 341 340 339 341 345 355 1 357 340 331 338 336 324 289 312 304 346 227 180 162 159 161 170 166 188 200 210 219 219 198 205 157 173 162 143 151 157 203 227 249 250 290 319 316 17 58 110
116 126 117 125 137 129 121 118 111 104 117 119 128 133 135 138 138 149 138 168 137 148 160 169 163 212 172 155 147 145 169 29 299 304 308 311 313 325 321 338 352 347 347 355 11 23 2 348 347 345 343 345 347 346 352 360 356 354 346 342 340 336 303 5 295 284 217 190 127 142 168 155 156 180 195 179 192 205 194 170 218 168 156 155 167 175 170 174 199 249 244 223 234 38 132 155 180
114 130 142 146 144 147 121 106 114 111 118 143 143 135 148 137 140 164 164 173 191 181 206 181 142 210 220 236 184 138 147 286 298 311 321 312 311 327 328 336 352 347 352 358 5 24 23 355 351 347 346 350 351 350 353 360 358 355 355 347 360 2 358 360 316 129 151 119 115 134 147 155 176 167 174 157 159 223 164 143 167 149 161 160 163 160 140 151 106 247 232 191 171 203 233 167 38
128 136 148 162 163 136 136 nan nan 119 128 148 149 131 144 150 172 164 174 207 187 237 212 191 187 216 298 258 258 128 70 311 319 318 327 322 312 326 333 337 349 336 346 1 8 13 53 1 353 349 349 354 353 350 354 360 1 358 358 16 11 20 26 40 64 85 100 108 122 128 138 149 161 150 141 135 137 136 96 106 119 132 164 163 154 136 111 105 104 177 187 173 174 217 185 161 60
145 154 158 156 152 139 nan nan nan nan 136 150 161 163 153 172 190 175 160 206 245 233 235 236 216 260 197 207 159 129 352 327 337 336 336 327 319 327 334 337 348 346 344 349 3 20 45 42 355 349 352 356 353 352 354 359 359 4 17 29 29 29 31 49 66 79 90 105 117 123 135 136 134 139 131 121 128 95 82 97 113 121 144 139 137 125 146 110 100 119 130 152 175 280 298 245 77
156 165 175 158 139 118 114 nan nan nan 139 148 156 148 147 192 200 187 165 256 212 262 268 237 291 278 213 205 168 21 346 339 350 340 336 327 318 324 328 337 351 352 345 344 349 22 44 62 33 355 354 357 353 355 359 3 8 12 23 34 40 41 50 69 81 82 82 98 108 118 125 133 138 113 120 121 93 95 102 107 108 123 145 156 143 132 119 104 109 93 107 120 154 201 276 355 9
162 173 177 169 134 nan 117 127 nan nan nan 132 150 146 186 229 190 185 191 229 268 267 243 221 313 172 197 188 223 301 348 348 355 345 338 327 316 322 323 330 345 343 352 347 344 8 30 93 49 34 15 353 353 0 5 11 16 24 32 43 52 56 67 79 83 88 92 99 106 120 121 122 132 144 142 133 125 117 110 99 101 114 132 135 114 107 113 111 85 83 94 103 109 95 76 70 278
167 175 181 152 162 135 124 119 nan 137 nan 129 164 185 184 207 175 184 239 283 331 313 258 305 293 277 249 256 284 343 350 352 353 349 340 320 314 323 323 330 333 342 353 353 353 0 44 93 65 63 30 27 49 16 12 23 31 32 42 53 57 67 79 85 87 93 100 100 103 104 114 120 124 123 123 121 120 120 114 108 104 80 73 85 86 82 75 79 86 79 79 87 97 100 94 131 172
168 177 177 169 168 161 134 132 nan nan nan 142 157 274 190 188 216 178 261 297 224 256 284 279 316 273 41 346 342 356 337 353 353 349 335 314 314 322 324 330 327 337 354 3 3 358 41 105 76 100 89 63 52 126 118 75 37 41 53 59 63 72 87 90 92 97 102 105 107 109 108 107 104 103 108 106 109 111 106 103 98 94 59 80 85 91 84 79 77 75 75 83 87 90 94 103 121
174 175 177 172 166 164 nan 148 nan nan nan 161 168 194 227 188 175 194 176 217 262 279 309 290 83 158 25 42 346 332 328 339 352 344 329 310 310 317 326 333 332 338 359 11 16 28 63 119 131 129 106 80 115 138 122 111 71 51 64 64 70 82 89 94 94 98 99 102 99 103 105 113 113 111 110 116 118 106 99 99 92 90 80 69 74 85 76 72 71 74 77 81 84 89 93 98 98
195 188 181 190 161 177 161 nan nan nan nan 184 192 183 185 175 163 186 197 249 280 304 228 227 246 203 341 141 321 321 324 326 339 334 320 305 311 322 327 338 338 350 18 28 51 69 68 103 152 139 113 69 128 139 127 117 98 65 79 74 77 87 94 96 99 99 101 100 103 103 121 125 123 120 120 118 114 110 105 93 88 89 87 80 74 67 76 81 82 82 82 82 84 86 90 93 98
212 193 194 177 175 175 nan nan nan nan 205 185 142 121 216 197 173 212 230 225 249 258 227 233 214 229 252 282 298 324 322 322 336 333 328 311 315 327 338 346 350 2 10 45 71 95 106 132 152 122 110 77 129 139 133 125 113 102 113 110 111 107 104 106 116 118 113 116 106 118 118 116 117 115 114 112 113 115 113 101 90 90 89 87 86 88 88 89 90 89 88 88 89 93 111 113 113
218 204 197 176 194 160 185 nan nan nan nan 144 133 140 171 181 272 237 247 247 281 248 231 243 243 252 269 286 310 332 328 324 338 342 334 327 329 338 347 350 358 351 5 61 110 98 127 155 149 100 87 100 140 141 136 137 132 127 118 119 113 111 114 122 122 121 124 120 118 114 115 115 116 116 111 108 109 103 102 104 94 92 92 92 91 91 91 91 93 94 94 91 88 105 113 110 108
217 205 193 175 193 177 168 nan nan nan 197 238 203 170 176 190 220 243 258 277 292 290 273 256 277 291 298 302 315 338 334 328 344 348 341 339 339 345 349 352 355 358 359 26 90 137 137 133 123 100 78 98 134 139 144 148 139 125 120 118 119 122 124 122 124 121 121 120 115 114 114 114 115 116 106 93 97 106 102 97 91 91 91 93 102 110 108 107 108 109 107 106 113 106 103 106 104
234 219 204 192 200 197 172 nan 159 nan 213 223 241 213 203 187 202 256 273 262 343 308 324 323 327 314 316 322 325 350 347 337 349 353 346 344 344 353 0 359 1 354 1 330 157 128 126 134 106 107 96 110 131 137 146 145 137 124 121 119 120 122 125 123 121 120 117 120 116 113 113 113 113 114 114 114 110 107 111 111 112 113 113 115 110 110 110 107 111 109 113 112 103 104 103 103 105
226 218 207 203 203 212 178 nan nan 184 nan 222 221 271 183 210 205 192 316 309 11 16 347 304 313 316 324 334 339 358 358 347 353 358 354 351 350 350 351 354 2 355 340 51 52 139 138 132 111 114 97 112 122 132 143 132 123 119 118 119 122 123 122 121 120 116 117 118 116 112 113 114 113 110 116 114 110 110 108 110 112 112 115 111 111 109 111 111 109 108 107 104 102 101 99 98 100
214 212 201 194 190 187 200 194 nan 209 218 232 223 210 230 240 190 144 348 24 164 214 290 288 315 329 332 333 341 355 359 358 358 360 351 349 348 348 351 354 355 359 4 72 82 149 161 140 117 111 103 118 126 140 144 133 124 120 121 121 123 120 121 119 116 116 114 112 113 112 112 111 109 110 111 111 107 111 109 111 110 112 110 110 111 110 112 111 108 104 104 102 96 91 95 93 90
212 209 223 207 210 165 174 173 169 179 243 199 206 nan 234 238 194 149 65 173 206 263 277 284 293 310 330 340 358 359 1 3 5 3 357 353 350 347 351 352 351 340 16 71 103 158 162 144 116 106 117 120 129 136 134 130 125 122 120 119 123 116 117 115 113 112 111 108 108 109 110 107 105 107 108 108 106 109 106 108 109 111 111 114 112 109 108 105 101 100 98 98 94 89 87 87 83
218 202 211 203 208 201 196 183 173 nan nan nan nan nan nan 325 197 247 87 152 223 274 281 290 300 317 346 349 356 1 356 3 7 3 352 349 351 341 352 349 343 349 24 86 115 95 155 167 118 109 124 121 130 134 130 131 127 127 123 121 118 111 117 111 111 114 109 108 108 106 106 106 107 104 103 105 108 103 103 106 108 109 116 112 114 110 103 103 100 95 94 88 82 81 81 83 78
224 212 nan nan nan nan 199 180 nan nan nan nan nan nan nan 167 nan 180 81 249 278 282 289 299 307 322 351 7 358 356 356 5 1 3 6 353 351 352 4 356 343 9 32 114 101 114 161 176 126 117 125 127 132 134 134 130 124 124 125 117 119 114 117 113 113 111 111 108 106 106 106 106 101 100 100 101 98 98 99 102 103 102 102 106 105 99 99 94 96 100 97 94 82 73 74 80 79
nan 218 206 nan nan nan nan nan nan nan nan nan 210 nan nan nan nan nan nan 257 281 282 296 305 313 335 354 8 10 1 353 4 10 3 1 3 5 7 358 347 357 11 6 39 106 129 153 171 117 126 137 132 139 132 134 129 126 118 122 123 121 119 120 117 112 114 111 109 107 106 105 103 101 100 98 96 97 96 98 98 99 101 100 96 92 92 97 98 99 95 97 97 88 84 80 77 75
nan nan nan nan nan nan nan nan nan nan nan nan nan nan nan nan nan nan 164 278 303 299 305 311 314 334 352 2 11 10 5 9 11 7 2 2 15 4 350 353 354 355 30 60 128 152 155 125 135 136 142 141 137 135 137 133 127 124 126 130 121 121 122 113 111 113 110 109 109 105 102 99 97 94 93 96 94 95 96 97 98 97 96 93 90 94 98 100 98 95 93 94 87 82 79 78 72
nan nan nan nan nan nan nan nan nan nan nan nan nan nan nan nan nan nan 185 246 314 316 320 319 319 329 343 360 11 21 14 4 14 21 16 18 9 7 3 351 336 345 146 110 142 147 137 104 122 129 154 146 140 136 136 135 137 133 131 127 126 124 118 117 112 110 110 110 108 103 99 95 94 90 91 90 94 94 94 94 95 93 94 95 96 97 99 103 101 98 95 85 88 85 80 76 69
nan nan nan nan nan nan nan nan nan nan nan nan nan nan nan nan nan 198 205 229 263 303 318 322 308 317 336 1 17 21 24 11 17 22 18 18 20 19 9 351 340 331 199 167 161 116 150 157 152 159 157 149 140 142 144 142 136 136 134 135 130 124 120 116 115 114 113 110 108 101 97 95 93 91 89 90 93 95 95 94 93 94 94 94 96 95 95 94 95 95 92 82 75 74 73 74 71
nan nan nan nan nan nan nan nan nan nan nan nan nan nan nan nan nan 199 218 267 289 317 325 325 313 317 333 1 13 21 29 28 21 16 17 17 22 42 21 350 353 345 211 195 95 121 149 154 160 161 157 154 147 143 142 140 141 142 139 134 128 122 121 115 116 117 112 109 106 102 95 93 90 86 85 87 91 95 95 95 95 96 97 95 96 96 93 92 88 85 85 75 74 72 72 72 72
nan nan nan nan nan nan nan nan nan nan nan nan nan nan nan nan nan 224 231 261 290 303 326 331 326 325 333 351 11 24 33 33 28 23 19 15 15 40 26 18 10 350 229 206 173 167 145 155 158 157 160 157 151 147 145 141 140 143 139 133 128 122 120 117 115 112 110 108 104 101 93 89 86 84 84 88 94 97 96 96 96 97 94 93 96 100 96 94 96 93 87 74 68 68 64 68 72
nan nan nan nan nan nan nan nan nan nan nan nan nan 216 nan 209 nan 238 242 276 286 291 324 336 339 336 336 347 8 28 31 35 34 26 20 13 16 38 59 49 50 42 200 201 176 174 158 156 149 153 154 159 158 152 149 146 146 143 137 130 122 121 116 114 115 114 111 107 102 98 93 89 86 84 86 91 96 98 99 98 98 94 92 89 90 91 93 98 96 91 83 72 61 54 54 57 69
nan nan nan nan nan nan nan nan nan nan nan nan nan nan 235 223 244 240 236 271 261 264 333 343 341 339 341 342 359 21 35 31 30 25 18 12 7 11 359 174 82 163 175 173 186 182 161 168 161 158 167 167 167 160 154 149 145 144 141 133 128 117 110 112 112 110 108 105 100 96 92 89 88 85 89 95 99 101 100 98 98 93 91 91 87 90 98 107 101 92 83 71 62 55 62 48 58
nan nan nan nan nan nan nan nan nan nan nan nan nan nan 230 225 230 248 254 252 270 286 328 346 346 343 338 342 355 15 36 35 34 26 13 10 6 1 328 270 262 153 169 177 205 185 177 175 174 161 168 171 171 169 165 155 nan nan 144 133 122 118 115 111 109 107 105 103 98 92 90 89 89 88 91 96 100 102 100 99 96 92 94 94 91 96 105 107 102 96 86 74 65 59 63 60 49
nan nan nan nan nan nan nan nan nan nan nan nan nan nan nan 229 220 234 240 253 262 245 266 342 351 344 339 339 353 10 35 41 37 28 17 12 6 353 330 258 223 172 175 184 209 195 161 170 174 173 172 176 179 175 170 157 nan 134 124 132 127 121 117 111 109 106 105 99 96 93 91 91 91 92 94 97 99 100 100 98 95 99 101 103 96 98 102 105 98 93 91 80 76 74 81 68 51
nan nan nan nan nan nan nan nan nan nan nan nan nan nan nan nan 223 228 237 230 215 221 285 346 346 348 343 336 349 9 27 39 29 27 23 16 10 0 345 286 238 187 174 176 203 184 134 135 175 159 176 184 180 174 165 155 142 nan nan 129 120 121 116 115 111 110 106 101 96 96 96 96 94 95 99 101 100 103 102 105 105 109 112 106 99 95 99 100 101 96 100 97 81 81 82 81 73
nan nan nan nan nan nan nan nan nan nan nan nan nan nan nan nan 214 219 221 224 221 278 314 311 332 15 357 340 348 10 26 56 32 35 32 23 18 10 1 331 301 310 154 161 121 167 135 130 146 162 183 181 176 171 167 160 153 151 nan nan nan 127 124 116 111 112 108 105 99 97 99 99 95 95 102 103 103 102 105 108 108 109 113 108 106 108 109 111 109 108 112 108 108 82 81 79 68
nan nan nan nan nan nan nan nan nan nan nan nan nan nan nan nan nan 214 225 219 176 214 312 319 318 53 43 342 348 356 340 30 30 32 29 27 20 14 15 18 359 356 193 161 146 173 137 129 149 166 168 181 179 175 175 167 167 163 155 nan nan nan 127 120 117 119 116 105 100 98 98 97 95 97 98 102 104 104 103 105 107 116 112 116 116 114 115 113 112 108 104 96 96 104 91 86 71
nan nan nan nan nan nan nan nan nan nan nan nan nan nan nan nan nan 209 203 195 192 192 199 250 269 50 46 2 328 338 9 21 32 28 26 27 25 20 18 26 26 270 199 180 132 78 135 132 151 155 160 179 186 184 180 178 175 165 148 151 146 135 129 128 125 129 116 107 98 98 99 97 95 95 93 99 107 106 103 102 116 119 117 117 113 113 115 111 113 110 105 97 101 97 102 88 88
nan nan nan nan nan nan nan nan nan nan nan nan nan nan nan nan nan nan 191 191 195 194 196 197 181 144 99 149 240 317 357 15 40 33 26 28 31 29 22 22 20 31 81 142 79 91 165 90 139 156 167 175 188 194 195 194 185 162 151 156 153 142 149 134 133 126 117 111 112 104 96 100 99 97 95 95 103 102 105 108 112 118 122 120 120 111 108 100 92 89 83 83 80 82 90 93 100
nan nan nan nan nan nan nan nan nan nan nan nan nan nan nan nan nan nan nan 208 197 202 210 200 175 161 171 164 95 55 18 20 35 28 21 25 35 36 29 22 29 48 56 106 126 123 187 166 158 168 175 178 188 198 204 203 175 147 141 134 128 125 126 142 129 120 122 113 101 113 114 106 105 103 100 95 98 104 100 100 106 114 117 120 107 105 108 110 89 80 74 70 77 85 84 88 93
nan nan nan nan nan nan nan nan nan nan nan nan nan nan nan nan nan nan nan 214 198 207 209 193 188 192 172 133 121 71 9 358 54 58 30 18 28 38 36 30 32 44 67 189 192 180 173 181 159 173 177 182 192 198 203 195 177 154 136 133 138 138 138 142 142 135 120 115 129 119 113 117 107 98 100 93 91 95 96 100 97 101 107 101 111 110 96 82 81 73 78 72 75 79 80 80 81
nan nan nan nan nan nan nan nan nan nan nan nan nan nan nan nan nan nan nan nan 207 210 201 195 199 204 172 136 128 98 29 349 11 40 37 25 15 26 33 30 28 44 69 197 204 211 200 130 180 171 181 186 194 201 197 188 176 164 161 156 157 151 145 143 140 131 135 146 133 128 125 116 113 105 99 94 90 92 96 98 101 109 104 99 109 82 74 81 81 87 75 74 81 75 67 74 81
nan nan nan nan nan nan nan nan nan nan nan nan nan nan nan nan nan nan nan nan nan 206 202 208 208 205 185 150 131 100 53 352 345 28 45 32 17 20 35 36 36 41 78 120 204 228 227 200 186 174 172 183 189 199 195 185 177 175 179 180 164 154 143 141 158 159 153 153 141 142 126 123 121 115 109 100 94 90 98 88 84 89 89 86 101 79 71 65 63 63 63 64 62 67 68 75 77
nan nan nan nan nan nan nan nan nan nan nan nan nan nan nan nan nan nan nan nan nan nan 198 210 211 202 200 182 130 91 109 224 256 36 67 63 28 3 20 41 41 59 109 178 196 215 227 223 207 150 142 169 179 181 188 187 181 185 191 191 148 137 143 159 172 160 157 158 138 131 133 134 130 133 127 117 106 99 91 88 78 65 69 64 79 48 34 44 56 60 59 58 56 55 69 69 68
nan nan nan nan nan nan nan nan nan nan nan nan nan nan nan nan nan nan nan nan nan nan nan 208 204 195 194 182 173 173 209 246 255 300 37 94 246 296 334 17 27 35 173 201 202 220 244 266 306 28 119 159 166 164 181 182 185 188 195 194 122 114 147 172 175 165 165 161 140 135 130 124 133 127 140 128 116 110 102 94 83 72 72 61 53 33 32 33 44 51 58 59 57 51 52 58 74
nan nan nan nan nan nan nan nan nan nan nan nan nan nan nan nan nan nan nan nan nan nan nan nan nan 204 199 187 177 165 183 256 267 258 243 227 236 321 7 15 4 6 327 270 190 218 242 251 278 340 129 146 158 160 166 170 186 192 201 195 119 122 166 176 163 158 156 146 145 140 145 153 137 138 136 134 126 116 103 91 85 79 68 56 52 47 44 38 45 51 57 60 64 59 51 47 61
nan nan nan nan nan nan nan nan nan nan nan nan nan nan nan nan nan nan nan nan nan nan nan nan nan nan 174 160 151 172 211 251 251 253 247 240 263 16 32 14 344 359 357 317 286 225 232 238 273 317 41 138 156 161 158 163 179 191 208 197 135 154 175 178 171 164 166 160 158 155 162 144 158 154 142 131 121 104 102 88 81 73 72 67 59 51 55 45 46 56 60 62 63 57 49 39 38
nan nan nan nan nan nan nan nan nan nan nan nan nan nan nan nan nan nan nan nan nan nan nan nan nan nan nan nan 131 137 243 258 254 252 253 252 255 62 39 350 357 330 344 317 286 243 225 228 248 283 21 155 163 164 158 160 164 185 204 197 162 178 187 187 180 173 172 165 166 158 152 147 148 131 131 105 109 102 94 81 73 74 74 71 65 62 62 64 64 66 64 66 64 62 53 39 42
nan nan nan nan nan nan nan nan nan nan nan nan nan nan nan nan nan nan nan nan nan nan nan nan nan nan nan nan nan 114 207 248 248 248 254 257 248 60 229 321 260 300 336 304 245 233 231 233 256 288 246 161 160 162 165 156 167 181 195 190 178 187 202 199 183 183 182 170 171 166 157 158 147 129 109 107 108 87 84 80 75 77 81 80 79 76 78 75 77 78 76 74 74 68 61 55 51
nan nan nan nan nan nan nan nan nan nan nan nan nan nan nan nan nan nan nan nan nan nan nan nan nan nan nan nan nan nan 187 214 229 235 241 244 226 206 203 206 215 226 319 314 317 262 251 239 253 273 269 207 166 165 164 163 170 183 188 190 180 195 207 203 193 193 184 181 183 175 166 163 148 140 134 141 111 95 82 76 82 82 85 88 86 83 81 81 79 79 80 78 75 73 67 60 60
nan nan nan nan nan nan nan nan nan nan nan nan nan nan nan nan nan nan nan nan nan nan nan nan nan nan nan nan nan nan nan 212 220 223 227 233 221 211 208 216 213 221 323 19 354 308 291 251 229 230 231 218 182 168 169 173 177 182 181 184 185 198 215 215 201 198 190 192 194 186 181 173 169 167 169 171 141 103 92 82 84 88 88 90 90 87 84 80 77 78 77 72 73 70 66 62 59
nan nan nan nan nan nan nan nan nan nan nan nan nan nan nan nan nan nan nan nan nan nan nan nan nan nan nan nan nan nan nan 214 221 216 218 231 229 217 215 218 225 193 31 17 348 280 255 251 247 231 217 223 203 190 181 182 183 180 182 182 183 193 208 207 201 198 199 201 201 197 194 198 182 179 200 206 206 158 107 86 88 92 97 93 88 89 82 76 68 70 65 65 63 57 58 60 54
nan nan nan nan nan nan nan nan nan nan nan nan nan nan nan nan nan nan nan nan nan nan nan nan nan nan nan nan nan nan nan nan 215 209 205 212 212 201 202 202 191 167 190 229 261 257 245 237 234 232 216 211 221 205 195 190 187 186 186 184 186 192 199 204 200 200 203 199 203 204 200 198 208 209 213 223 223 221 218 119 97 110 114 97 96 89 82 73 53 51 42 46 37 34 40 45 43
nan nan nan nan nan nan nan nan nan nan nan nan nan nan nan nan nan nan nan nan nan nan nan nan nan nan nan nan nan nan nan 210 212 213 211 210 204 199 201 203 209 202 207 233 259 246 274 262 249 220 202 209 218 217 209 199 193 192 191 190 188 192 201 206 203 203 200 198 202 208 208 217 218 223 223 225 217 220 228 217 194 181 175 168 143 114 76 42 7 19 4 7 3 3 18 27 25
nan nan nan nan nan nan nan nan nan nan nan nan nan nan nan nan nan nan nan nan nan nan nan nan nan nan nan nan nan nan nan nan nan 215 216 212 195 184 188 203 208 206 209 218 226 240 251 249 255 255 236 218 223 229 225 210 205 198 198 195 194 198 203 208 205 198 194 198 205 208 212 217 224 222 230 224 213 216 226 229 245 235 234 255 288 269 268 277 300 327 331 338 331 341 357 4 359
nan nan nan nan nan nan nan nan nan nan nan nan nan nan nan nan nan nan nan nan nan nan nan nan nan nan nan nan nan nan nan nan nan nan 222 209 190 181 189 207 214 216 218 224 222 223 234 254 261 259 240 216 222 231 230 225 216 207 204 202 200 203 208 212 208 198 193 200 207 211 217 226 229 221 227 217 213 213 217 244 248 276 278 278 275 286 275 273 285 305 313 299 314 322 335 345 332